EW4061 Weather Reports


time (UTC)temp
F
wind
direction
speed
knots
gust
knots
rain 1hr
in
rain 24hr
in
rain mn
in
humidity
%
barometer
mb
20260510161803 77 250 2.6 8.7 0.00 0.00 0.00 45 1018.1
20260510160924 77 216 2.6 13.0 0.00 0.00 0.00 45 1018.1
20260510160003 77 238 2.6 13.0 0.00 0.00 0.00 46 1018.2
20260510155403 76 259 2.6 9.6 0.00 0.00 0.00 44 1018.2
20260510154503 77 293 1.7 6.1 0.00 0.00 0.00 44 1018.2
20260510153624 77 288 1.7 5.2 0.00 0.00 0.00 47 1018.3
20260510152703 76 227 2.6 7.0 0.00 0.00 0.00 46 1018.4
20260510151824 75 255 2.6 8.7 0.00 0.00 0.00 49 1018.4
20260510150902 75 208 2.6 10.4 0.00 0.00 0.00 47 1018.4
20260510150024 75 273 1.7 6.1 0.00 0.00 0.00 48 1018.4
20260510145402 75 345 1.7 4.3 0.00 0.00 0.00 47 1018.4
20260510144523 74 195 1.7 5.2 0.00 0.00 0.00 47 1018.3
20260510143602 74 31 1.7 7.0 0.00 0.00 0.00 49 1018.4
20260510142702 73 201 2.6 7.0 0.00 0.00 0.00 52 1018.3
20260510141802 73 220 2.6 7.0 0.00 0.00 0.00 50 1018.4
20260510140902 73 138 1.7 5.2 0.00 0.00 0.00 49 1018.2
20260510140002 73 132 1.7 3.5 0.00 0.00 0.00 51 1018.4
20260510135423 72 249 1.7 3.5 0.00 0.00 0.00 52 1018.5
20260510134529 71 265 1.7 3.5 0.00 0.00 0.00 53 1018.4
20260510133607 71 263 1.7 7.0 0.00 0.00 0.00 53 1018.4
20260510132729 70 270 1.7 6.1 0.00 0.00 0.00 54 1018.4
20260510131808 70 325 0.9 4.3 0.00 0.00 0.00 54 1018.3
20260510130907 70 252 1.7 7.8 0.00 0.00 0.00 54 1018.2
20260510130007 69 245 0.9 5.2 0.00 0.00 0.00 56 1018.1
20260510125408 69 251 1.7 7.0 0.00 0.00 0.00 56 1018.1
20260510124507 68 265 1.7 5.2 0.00 0.00 0.00 57 1018.0
20260510123607 68 274 1.7 5.2 0.00 0.00 0.00 59 1018.0
20260510122707 67 268 0.9 3.5 0.00 0.00 0.00 61 1017.9
20260510121828 66 263 0.9 3.5 0.00 0.00 0.00 62 1017.9
20260510120928 66 255 0.9 4.3 0.00 0.00 0.00 62 1017.8
20260510120007 65 286 0.9 3.5 0.00 0.00 0.00 63 1017.9
20260510115407 64 293 0.9 3.5 0.00 0.00 0.00 64 1017.9
20260510114507 63 282 0.0 1.7 0.00 0.00 0.00 67 1017.7
20260510113607 62 277 0.0 2.6 0.00 0.00 0.00 67 1017.5
20260510112707 62 291 0.9 2.6 0.00 0.00 0.00 67 1017.5
20260510111807 61 302 0.0 2.6 0.00 0.00 0.00 67 1017.3
20260510110907 61 271 0.0 4.3 0.00 0.00 0.00 68 1017.1
20260510110007 61 346 0.0 1.7 0.00 0.00 0.00 68 1016.9
20260510105407 61 298 0.0 1.7 0.00 0.00 0.00 69 1016.8
20260510104507 61 292 0.0 0.9 0.00 0.00 0.00 66 1016.7
20260510103607 61 329 0.9 2.6 0.00 0.00 0.00 64 1016.7
20260510102707 61 325 0.9 4.3 0.00 0.00 0.00 63 1016.5
20260510101828 61 317 0.9 4.3 0.00 0.00 0.00 64 1016.4
20260510100907 62 293 0.0 3.5 0.00 0.00 0.00 64 1016.3
20260510100007 62 352 0.0 2.6 0.00 0.00 0.00 64 1016.2
20260510095427 62 290 0.9 5.2 0.00 0.00 0.00 64 1016.2
20260510094507 62 317 0.9 5.2 0.00 0.00 0.00 63 1016.2
20260510093628 62 319 0.9 5.2 0.00 0.00 0.00 64 1016.1
20260510092706 62 311 0.9 3.5 0.00 0.00 0.00 65 1016.0
20260510091806 63 308 0.9 4.3 0.00 0.00 0.00 65 1015.9
20260510090906 63 288 0.9 3.5 0.00 0.00 0.00 66 1015.8
20260510090006 63 289 0.9 7.8 0.00 0.00 0.00 66 1015.7
20260510085407 63 292 1.7 7.8 0.00 0.00 0.00 66 1015.6
20260510084506 63 275 1.7 5.2 0.00 0.00 0.00 67 1015.5
20260510083606 62 283 1.7 5.2 0.00 0.00 0.00 68 1015.6
20260510082706 62 284 1.7 4.3 0.00 0.00 0.00 69 1015.6
20260510081827 61 299 0.9 4.3 0.00 0.00 0.00 69 1015.7
20260510080906 61 295 0.9 2.6 0.00 0.00 0.00 69 1015.6
20260510080006 61 278 1.7 4.3 0.00 0.00 0.00 69 1015.4
20260510075406 61 284 1.7 4.3 0.00 0.00 0.00 70 1015.2
20260510074506 60 329 0.9 5.2 0.00 0.00 0.00 72 1015.1
20260510073606 60 283 0.0 1.7 0.00 0.00 0.00 72 1015.2
20260510072706 60 305 0.9 2.6 0.00 0.00 0.00 71 1015.2
20260510071827 60 282 1.7 5.2 0.00 0.00 0.00 70 1015.2
20260510070927 60 278 0.9 5.2 0.00 0.00 0.00 70 1015.2
20260510070006 60 284 0.9 3.5 0.00 0.00 0.00 72 1015.1
20260510065406 59 278 0.9 3.5 0.00 0.00 0.00 74 1015.1
20260510064506 58 284 0.0 2.6 0.00 0.00 0.00 76 1015.0
20260510063606 56 274 0.0 2.6 0.00 0.00 0.00 80 1015.1
20260510062727 55 275 0.0 1.7 0.00 0.00 0.00 82 1015.2
20260510061806 54 309 0.0 2.6 0.00 0.00 0.00 85 1015.2
20260510060905 53 0 0.0 0.0 0.00 0.00 0.00 86 1015.3
20260510060006 53 0 0.0 0.0 0.00 0.00 0.00 85 1015.3
20260510055406 53 15 0.0 2.6 0.00 0.00 0.00 85 1015.4
20260510054505 53 2 0.0 1.7 0.00 0.00 0.00 84 1015.4
20260510053605 53 0 0.0 0.0 0.00 0.00 0.00 84 1015.3
20260510052705 53 319 0.0 1.7 0.00 0.00 0.00 84 1015.4
20260510051805 53 319 0.0 0.9 0.00 0.00 0.00 84 1015.4
20260510050905 53 319 0.0 1.7 0.00 0.00 0.00 84 1015.4
20260510050005 54 319 0.0 0.9 0.00 0.00 0.00 83 1015.4
20260510045405 54 319 0.0 0.9 0.00 0.00 0.00 84 1015.4
20260510044505 54 322 0.0 2.6 0.00 0.00 0.00 82 1015.4
20260510043605 54 348 0.0 0.9 0.00 0.00 0.00 82 1015.3
20260510042705 54 340 0.0 1.7 0.00 0.00 0.00 81 1015.3
20260510041805 55 330 0.0 1.7 0.00 0.00 0.00 81 1015.4
20260510040926 55 330 0.9 1.7 0.00 0.00 0.00 81 1015.3
20260510040005 55 330 0.0 1.7 0.00 0.00 0.00 80 1015.3
20260510035405 55 330 0.0 1.7 0.00 0.00 0.00 80 1015.3
20260510034505 55 330 0.0 0.9 0.00 0.00 0.00 79 1015.4
20260510033626 56 330 0.0 1.7 0.00 0.00 0.00 78 1015.1
20260510032705 56 330 0.0 1.7 0.00 0.00 0.00 77 1015.1
20260510031805 56 330 0.0 0.9 0.00 0.00 0.00 77 1015.0
20260510030905 56 0 0.0 0.0 0.00 0.00 0.00 76 1015.0
20260510030005 57 0 0.0 0.0 0.00 0.00 0.00 75 1014.9
20260510025405 57 0 0.0 0.0 0.00 0.00 0.00 75 1014.8
20260510024505 58 18 0.0 1.7 0.00 0.00 0.00 74 1014.8
20260510023605 59 18 0.0 0.9 0.00 0.00 0.00 72 1014.7
20260510022705 59 13 0.0 1.7 0.00 0.00 0.00 70 1014.6
20260510021805 60 9 0.0 1.7 0.00 0.00 0.00 69 1014.5
20260510020926 60 0 0.0 0.0 0.00 0.00 0.00 68 1014.4
20260510020005 61 338 0.0 1.7 0.00 0.00 0.00 67 1014.4
20260510015405 62 312 0.0 1.7 0.00 0.00 0.00 67 1014.1
20260510014504 62 275 0.9 1.7 0.00 0.00 0.00 63 1014.1
20260510013604 62 260 0.0 1.7 0.00 0.00 0.00 62 1013.9
20260510012704 63 258 0.9 1.7 0.00 0.00 0.00 61 1013.7
20260510011804 64 283 0.9 1.7 0.00 0.00 0.00 58 1013.5
20260510010904 65 278 0.9 1.7 0.00 0.00 0.00 57 1013.5
20260510010005 66 271 0.9 2.6 0.00 0.00 0.00 55 1013.3
20260510005404 66 271 0.9 4.3 0.00 0.00 0.00 52 1013.4
20260510004504 67 280 0.9 3.5 0.00 0.00 0.00 53 1013.2
20260510003604 68 296 0.0 3.5 0.00 0.00 0.00 49 1013.1
20260510002704 69 318 0.9 2.6 0.00 0.00 0.00 48 1013.2
20260510001805 69 299 0.9 2.6 0.00 0.00 0.00 46 1013.1
20260510000925 69 282 0.9 5.2 0.00 0.00 0.00 46 1012.9
20260510000004 70 281 1.7 3.5 0.00 0.00 0.00 45 1012.8
20260509235404 70 300 0.9 3.5 0.00 0.00 0.00 45 1012.7
20260509234504 70 311 0.9 4.3 0.00 0.00 0.00 45 1012.5
20260509233604 70 289 1.7 6.1 0.00 0.00 0.00 44 1012.4
20260509232704 71 270 1.7 5.2 0.00 0.00 0.00 43 1012.3
20260509231804 71 269 1.7 7.0 0.00 0.00 0.00 44 1012.3
20260509230925 71 282 0.9 4.3 0.00 0.00 0.00 44 1012.2
20260509230025 72 275 0.9 3.5 0.00 0.00 0.00 45 1012.0
20260509225404 72 274 0.9 3.5 0.00 0.00 0.00 44 1012.0
20260509224504 73 296 1.7 4.3 0.00 0.00 0.00 44 1011.9
20260509223604 74 270 0.9 3.5 0.00 0.00 0.00 43 1012.0
20260509222704 73 308 0.9 1.7 0.00 0.00 0.00 45 1011.9
20260509221804 74 276 0.9 4.3 0.00 0.00 0.00 47 1011.9
20260509220903 75 265 1.7 4.3 0.00 0.00 0.00 43 1011.9
20260509220004 75 293 0.9 3.5 0.00 0.00 0.00 47 1011.8
20260509215403 74 263 1.7 4.3 0.00 0.00 0.00 44 1011.8
20260509214524 74 347 0.9 2.6 0.00 0.00 0.00 45 1011.8
20260509213603 74 320 0.9 3.5 0.00 0.00 0.00 44 1011.8
20260509212703 74 304 1.7 5.2 0.00 0.00 0.00 42 1011.7
20260509211803 76 274 1.7 5.2 0.00 0.00 0.00 41 1011.5
20260509210903 76 282 0.9 5.2 0.00 0.00 0.00 41 1011.5
20260509210003 77 258 1.7 7.0 0.00 0.00 0.00 38 1011.4
20260509205403 77 261 2.6 8.7 0.00 0.00 0.00 38 1011.4
20260509204524 77 237 3.5 8.7 0.00 0.00 0.00 39 1011.3
20260509203624 78 276 2.6 6.1 0.00 0.00 0.00 38 1011.3
20260509202703 77 195 2.6 7.0 0.00 0.00 0.00 39 1011.3
20260509201803 77 293 2.6 7.0 0.00 0.00 0.00 40 1011.3
20260509200903 77 205 2.6 7.0 0.00 0.00 0.00 40 1011.2
20260509200011 76 231 3.5 8.7 0.00 0.00 0.00 40 1011.3
20260509195411 76 251 2.6 7.8 0.00 0.00 0.00 42 1011.3
20260509194511 75 249 2.6 10.4 0.00 0.00 0.00 41 1011.4
20260509193632 75 270 1.7 7.8 0.00 0.00 0.00 40 1011.5
20260509192711 75 195 1.7 6.1 0.00 0.00 0.00 44 1011.2
20260509191811 74 247 0.9 4.3 0.00 0.00 0.00 46 1011.3
20260509190911 74 334 1.7 5.2 0.00 0.00 0.00 45 1011.4
20260509190032 75 272 2.6 7.8 0.00 0.00 0.00 42 1011.5
20260509185412 76 243 2.6 7.8 0.00 0.00 0.00 41 1011.5
20260509184511 75 253 2.6 7.0 0.00 0.00 0.00 42 1011.5
20260509183611 74 171 2.6 7.8 0.00 0.00 0.00 43 1011.5
20260509182710 73 309 1.7 7.8 0.00 0.00 0.00 45 1011.8
20260509181811 74 244 1.7 6.1 0.00 0.00 0.00 46 1011.9
20260509180910 73 210 1.7 7.8 0.00 0.00 0.00 46 1011.9
20260509180011 73 173 2.6 7.0 0.00 0.00 0.00 49 1011.9
20260509175410 73 173 2.6 8.7 0.00 0.00 0.00 45 1012.0
20260509174511 71 174 1.7 3.5 0.00 0.00 0.00 58 1012.2
20260509173610 70 184 0.9 3.5 0.00 0.00 0.00 56 1012.4
20260509172710 71 115 0.0 2.6 0.00 0.00 0.00 60 1012.4
20260509171810 71 147 0.9 3.5 0.00 0.00 0.00 61 1012.5
20260509170910 70 200 0.9 4.3 0.00 0.00 0.00 56 1012.5
20260509170010 69 65 0.9 3.5 0.00 0.00 0.00 61 1012.7
20260509165410 69 69 0.9 3.5 0.00 0.00 0.00 58 1012.8
20260509164510 69 127 0.0 2.6 0.00 0.00 0.00 66 1012.8
20260509163610 69 84 0.9 2.6 0.00 0.00 0.00 62 1013.0
20260509162710 69 44 1.7 6.1 0.00 0.00 0.00 63 1013.0